Location: Unspecified
(43.3830°N, 0.0000°E)
Time: 05:53:10
(UTC+00:00)

SR - All Passes

Search period start: 20 June 2019 00:00
Search period end: 30 June 2019 00:00
Orbit: 582 x 874 km, 66.7° (Epoch: 19 June)

Date Brightness Start Highest point End Pass type
(mag) Time Alt. Az. Time Alt. Az. Time Alt. Az.
20 Jun - 03:07:35 10° SSE 03:10:43 20° ESE 03:13:52 10° ENE visible
20 Jun - 04:48:25 10° WSW 04:52:25 40° NW 04:56:31 10° NNE daylight
20 Jun - 11:45:14 10° N 11:49:19 27° NE 11:53:40 10° ESE daylight
20 Jun - 13:26:49 10° NW 13:31:33 48° WSW 13:36:39 10° S daylight
21 Jun - 03:58:29 10° SSW 04:02:43 87° WNW 04:07:03 10° NNE daylight
21 Jun - 05:43:28 10° WNW 05:45:28 13° NW 05:47:31 10° N daylight
21 Jun - 10:56:22 10° N 10:59:18 16° NE 11:02:23 10° ENE daylight
21 Jun - 12:37:04 10° NNW 12:41:59 86° ENE 12:47:19 10° SSE daylight
21 Jun - 14:21:16 10° W 14:23:28 13° WSW 14:25:44 10° SW daylight
22 Jun - 03:09:14 10° S 03:13:12 41° ESE 03:17:15 10° NE visible
22 Jun - 04:52:01 10° W 04:55:24 22° NW 04:58:52 10° N daylight
22 Jun - 11:47:37 10° NNW 11:52:17 45° NE 11:57:20 10° SE daylight
22 Jun - 13:30:03 10° NW 13:34:09 26° WSW 13:38:31 10° SSW daylight
23 Jun - 02:20:52 10° SSE 02:23:52 19° ESE 02:26:53 10° ENE visible
23 Jun - 04:01:29 10° SW 04:05:31 43° NW 04:09:41 10° NNE daylight
23 Jun - 10:58:24 10° N 11:02:26 26° NE 11:06:44 10° ESE daylight
23 Jun - 12:39:55 10° NW 12:44:42 51° WSW 12:49:53 10° S daylight
24 Jun - 03:11:37 10° SSW 03:15:51 88° ESE 03:20:11 10° NNE visible
24 Jun - 04:56:21 10° WNW 04:58:33 14° NW 05:00:48 10° N daylight
24 Jun - 10:09:33 10° N 10:12:24 15° NE 10:15:22 10° ENE daylight
24 Jun - 11:50:12 10° NNW 11:55:07 82° ENE 12:00:29 10° SSE daylight
24 Jun - 13:34:06 10° WNW 13:36:39 14° WSW 13:39:16 10° SW daylight
25 Jun - 02:22:25 10° S 02:26:21 38° ESE 02:30:21 10° NE visible
25 Jun - 04:05:02 10° W 04:08:29 24° NW 04:12:04 10° N daylight
25 Jun - 11:00:45 10° NNW 11:05:25 43° NE 11:10:27 10° SE daylight
25 Jun - 12:43:05 10° NW 12:47:19 28° WSW 12:51:50 10° SSW daylight
26 Jun - 01:34:11 10° SSE 01:37:01 18° ESE 01:39:53 10° ENE visible
26 Jun - 03:14:33 10° SW 03:18:38 46° NW 03:22:50 10° NNE visible
26 Jun - 10:11:34 10° N 10:15:33 25° NE 10:19:48 10° ESE daylight
26 Jun - 11:53:00 10° NW 11:57:51 55° WSW 12:03:06 10° SSE daylight
27 Jun - 02:24:44 10° SSW 02:28:58 82° ESE 02:33:19 10° NNE visible
27 Jun - 04:09:15 10° WNW 04:11:38 14° NW 04:14:03 10° N daylight
27 Jun - 09:22:45 10° N 09:25:30 15° NE 09:28:21 10° ENE daylight
27 Jun - 11:03:19 10° NNW 11:08:16 78° ENE 11:13:39 10° SE daylight
27 Jun - 12:46:59 10° WNW 12:49:49 15° WSW 12:52:46 10° SW daylight
28 Jun - 01:35:37 10° S 01:39:30 36° ESE 01:43:26 10° NE visible
28 Jun - 03:18:02 10° WSW 03:21:35 25° NW 03:25:14 10° N visible
28 Jun - 10:13:54 10° NNW 10:18:33 41° NE 10:23:34 10° ESE daylight
28 Jun - 11:56:09 10° NW 12:00:29 30° WSW 12:05:07 10° S daylight
29 Jun - 00:47:30 10° SSE 00:50:10 16° ESE 00:52:53 10° ENE visible
29 Jun - 02:27:38 10° SW 02:31:44 49° NW 02:36:00 10° NNE visible
29 Jun - 09:24:43 10° N 09:28:40 24° NE 09:32:51 10° E daylight
29 Jun - 11:06:07 10° NW 11:11:01 58° WSW 11:16:20 10° SSE daylight
